GW2041 Weather Reports


Display with metric or nautical units.
time (UTC)temp
F
wind
direction
speed
MPH
gust
MPH
rain 1hr
in
rain 24hr
in
rain mn
in
humidity
%
barometer
mb
20260905174353 63 270 2.0 4.0 0.00 0.00 0.00 69 1023.2
20260905173356 63 270 4.0 6.0 0.00 0.00 0.00 68 1023.1
20260905172834 64 68 4.0 11.0 0.00 0.00 0.00 66 1023.1
20260905170350 66 270 5.0 8.0 0.00 0.00 0.00 63 1022.8
20260905164825 67 270 6.0 11.0 0.00 0.00 0.00 61 1023.1
20260905163839 67 270 5.0 9.0 0.00 0.00 0.00 65 1022.2
20260905162818 66 293 5.0 9.0 0.00 0.00 0.00 63 1022.2
20260905161341 67 338 4.0 8.0 0.00 0.00 0.00 62 1022.1
20260905160340 67 180 5.0 12.0 0.00 0.00 0.00 64 1022.1
20260905155340 68 203 6.0 7.0 0.00 0.00 0.00 65 1021.6
20260905154341 66 248 4.0 10.0 0.00 0.00 0.00 69 1021.6
20260905153813 65 248 4.0 10.0 0.00 0.00 0.00 70 1021.4
20260905152340 66 270 3.0 8.0 0.00 0.00 0.00 72 1021.4
20260905151341 66 338 2.0 4.0 0.00 0.00 0.00 74 1021.2
20260905150345 65 270 3.0 3.0 0.00 0.00 0.00 75 1021.2
20260905145234 65 23 3.0 7.0 0.00 0.00 0.00 73 1020.9
20260905144235 66 338 3.0 9.0 0.00 0.00 0.00 69 1020.9
20260905143239 67 135 4.0 10.0 0.00 0.00 0.00 68 1020.8
20260905142235 67 225 5.0 10.0 0.00 0.00 0.00 67 1020.8
20260905141235 67 248 5.0 8.0 0.00 0.00 0.00 67 1020.7
20260905140236 67 270 6.0 11.0 0.00 0.00 0.00 67 1020.7
20260905135232 67 248 7.0 13.0 0.00 0.00 0.00 68 1020.6
20260905134234 67 270 7.0 15.0 0.00 0.00 0.00 67 1020.6
20260905133237 68 45 6.0 11.0 0.00 0.00 0.00 66 1020.2
20260905132233 69 248 6.0 11.0 0.00 0.00 0.00 65 1020.2
20260905131234 70 270 7.0 12.0 0.00 0.00 0.00 65 1020.2
20260905130237 69 315 8.0 15.0 0.00 0.00 0.00 64 1020.2
20260905125230 69 270 6.0 13.0 0.00 0.00 0.00 65 1020.0
20260905124231 67 270 7.0 16.0 0.00 0.00 0.00 67 1020.0
20260905123235 67 270 5.0 12.0 0.00 0.00 0.00 66 1019.9
20260905122711 67 225 7.0 12.0 0.00 0.00 0.00 68 1019.9
20260905121235 67 270 6.0 12.0 0.00 0.00 0.00 68 1019.4
20260905115234 69 270 4.0 13.0 0.00 0.00 0.00 69 1019.4
20260905114233 66 68 5.0 10.0 0.00 0.00 0.00 71 1019.4
20260905113232 66 180 4.0 8.0 0.00 0.00 0.00 69 1019.1
20260905112233 67 180 4.0 8.0 0.00 0.00 0.00 68 1019.1
20260905111237 67 270 4.0 11.0 0.00 0.00 0.00 68 1018.8
20260905110246 68 45 4.0 9.0 0.00 0.00 0.00 68 1018.8
20260905105233 67 248 4.0 8.0 0.00 0.00 0.00 68 1018.7
20260905104236 67 270 4.0 8.0 0.00 0.00 0.00 68 1018.7
20260905103226 69 315 7.0 0.0 0.00 0.00 0.00 68 1018.1
20260905102335 70 248 7.0 11.0 0.00 0.00 0.00 68 1018.1
20260905101335 69 225 7.0 16.0 0.00 0.00 0.00 69 1018.0
20260905100332 69 315 7.0 16.0 0.00 0.00 0.00 68 1018.0
20260905095334 68 248 6.0 13.0 0.00 0.00 0.00 71 1017.5
20260905094334 67 248 6.0 12.0 0.00 0.00 0.00 71 1017.5
20260905093333 68 248 7.0 13.0 0.00 0.00 0.00 68 1017.1
20260905092334 71 338 8.0 13.0 0.00 0.00 0.00 67 1017.1
20260905091331 70 270 8.0 13.0 0.00 0.00 0.00 68 1017.1
20260905090332 69 180 6.0 13.0 0.00 0.00 0.00 73 1017.1
20260905085334 68 225 7.0 16.0 0.00 0.00 0.00 73 1016.9
20260905084332 67 180 6.0 13.0 0.00 0.00 0.00 78 1016.9
20260905083332 66 248 8.0 15.0 0.00 0.00 0.00 77 1016.3
20260905082335 67 248 6.0 12.0 0.00 0.00 0.00 75 1016.3
20260905081336 68 203 5.0 11.0 0.00 0.00 0.00 76 1016.5
20260905080331 68 270 6.0 12.0 0.00 0.00 0.00 78 1016.5
20260905075330 67 270 6.0 13.0 0.00 0.00 0.00 78 1016.3
20260905074330 66 293 6.0 11.0 0.00 0.00 0.00 80 1016.3
20260905073810 65 203 6.0 15.0 0.00 0.00 0.00 82 1016.1
20260905072325 63 180 5.0 15.0 0.00 0.00 0.00 85 1016.1
20260905071308 60 293 4.0 7.0 0.00 0.00 0.00 87 1016.1
20260905070307 60 248 4.0 6.0 0.00 0.00 0.00 87 1016.1
20260905065307 60 270 5.0 7.0 0.00 0.00 0.00 87 1016.0
20260905064305 59 270 4.0 9.0 0.00 0.00 0.00 88 1016.0
20260905063302 58 180 5.0 13.0 0.00 0.00 0.00 88 1015.8
20260905062254 58 248 5.0 11.0 0.00 0.00 0.00 89 1015.8
20260905061245 58 180 4.0 7.0 0.00 0.00 0.00 89 1015.6
20260905060722 57 270 3.0 9.0 0.00 0.00 0.00 90 1015.6
20260905055235 57 203 4.0 8.0 0.00 0.00 0.00 90 1015.6
20260905054236 57 0 4.0 5.0 0.00 0.00 0.00 90 1015.6
20260905053241 56 225 4.0 8.0 0.00 0.00 0.00 90 1015.3
20260905052236 56 135 2.0 4.0 0.00 0.00 0.00 90 1015.3
20260905051240 56 225 2.0 5.0 0.00 0.00 0.00 90 1015.3
20260905050258 56 270 3.0 7.0 0.00 0.00 0.00 90 1015.3
20260905045724 56 158 3.0 6.0 0.00 0.00 0.00 90 1015.2
20260905044239 56 135 3.0 7.0 0.00 0.00 0.00 90 1015.2
20260905043234 56 180 3.0 6.0 0.00 0.00 0.00 90 1015.0
20260905042233 56 180 2.0 6.0 0.00 0.00 0.00 90 1015.0
20260905041226 56 180 2.0 5.0 0.00 0.00 0.00 90 1014.9
20260905040224 56 158 3.0 0.0 0.00 0.00 0.00 89 1014.9
20260905035337 56 180 2.0 4.0 0.00 0.00 0.00 89 1014.8
20260905034337 56 248 2.0 5.0 0.00 0.00 0.00 89 1014.8
20260905033341 56 158 3.0 4.0 0.00 0.00 0.00 89 1015.0
20260905032815 56 225 3.0 5.0 0.00 0.00 0.00 89 1015.0
20260905031335 57 248 3.0 6.0 0.00 0.00 0.00 89 1014.8
20260905030404 57 338 2.0 5.0 0.00 0.00 0.00 89 1014.8
20260905025338 57 248 3.0 5.0 0.00 0.00 0.00 88 1014.7
20260905024336 57 203 3.0 4.0 0.00 0.00 0.00 89 1014.7
20260905023338 57 180 3.0 7.0 0.00 0.00 0.00 89 1014.5
20260905022829 57 225 3.0 5.0 0.00 0.00 0.00 88 1014.5
20260905021328 57 225 3.0 5.0 0.00 0.00 0.00 89 1014.7
20260905020335 57 158 2.0 4.0 0.00 0.00 0.00 88 1014.7
20260905015318 57 180 2.0 4.0 0.00 0.00 0.00 88 1014.5
20260905014316 57 158 2.0 5.0 0.00 0.00 0.00 88 1014.5
20260905013315 57 135 2.0 4.0 0.00 0.00 0.00 88 1014.3
20260905012310 57 180 1.0 4.0 0.00 0.00 0.00 88 1014.3
20260905011309 58 180 1.0 3.0 0.00 0.00 0.00 88 1014.4
20260905005256 58 180 2.0 5.0 0.00 0.00 0.00 87 1014.3
20260905004245 58 135 2.0 6.0 0.00 0.00 0.00 87 1014.3
20260905003245 58 248 3.0 6.0 0.00 0.00 0.00 87 1014.5
20260905002246 58 248 3.0 7.0 0.00 0.00 0.00 87 1014.5
20260905001240 58 113 3.0 6.0 0.00 0.00 0.00 87 1014.4
20260905000245 59 180 3.0 6.0 0.00 0.00 0.00 87 1014.4
20260904235714 59 315 3.0 8.0 0.00 0.00 0.00 87 1014.3
20260904234240 59 180 4.0 8.0 0.00 0.00 0.00 87 1014.3
20260904233244 59 270 3.0 5.0 0.00 0.00 0.00 88 1014.1
20260904232240 59 315 4.0 8.0 0.00 0.00 0.00 88 1014.1
20260904231240 59 180 4.0 6.0 0.00 0.00 0.00 88 1014.1
20260904230242 59 180 4.0 8.0 0.00 0.00 0.00 88 1014.1
20260904225241 59 248 3.0 8.0 0.00 0.00 0.00 88 1014.0
20260904224230 59 180 3.0 4.0 0.00 0.00 0.00 88 1014.0
20260904223235 59 158 3.0 6.0 0.00 0.00 0.00 89 1013.8
20260904222237 59 180 3.0 5.0 0.00 0.00 0.00 89 1013.8
20260904221228 59 225 3.0 4.0 0.00 0.00 0.00 89 1013.7
20260904220225 60 225 3.0 0.0 0.00 0.00 0.00 89 1013.7
20260904215758 60 225 2.0 4.0 0.00 0.03 0.33 89 1013.7
20260904214801 60 225 3.0 6.0 0.00 0.03 0.33 89 1013.7
20260904213754 60 158 3.0 5.0 0.00 0.03 0.33 90 1013.6
20260904212755 60 158 3.0 6.0 0.00 0.03 0.33 90 1013.6
20260904211754 60 158 2.0 4.0 0.00 0.03 0.33 90 1013.6
20260904210754 60 248 2.0 4.0 0.00 0.03 0.33 90 1013.6
20260904205751 61 270 2.0 4.0 0.00 0.03 0.33 90 1013.5
20260904204752 61 180 2.0 6.0 0.00 0.03 0.33 90 1013.5
20260904203751 61 270 2.0 6.0 0.00 0.03 0.33 90 1013.3
20260904202751 61 225 3.0 9.0 0.00 0.03 0.33 90 1013.3
20260904202231 60 180 2.0 5.0 0.00 0.03 0.33 90 1013.3
20260904200752 61 248 3.0 5.0 0.00 0.03 0.33 90 1013.3
20260904195752 61 248 3.0 6.0 0.00 0.03 0.33 90 1013.1
20260904194752 61 180 2.0 5.0 0.00 0.03 0.33 90 1013.1
20260904193750 61 248 3.0 7.0 0.00 0.03 0.33 90 1012.8
20260904192750 61 293 3.0 9.0 0.00 0.03 0.33 90 1012.8
20260904191751 61 270 3.0 6.0 0.00 0.03 0.33 90 1012.6
20260904190747 61 270 3.0 5.0 0.03 0.03 0.33 90 1012.6
20260904185749 61 225 3.0 8.0 0.03 0.03 0.33 90 1012.3
20260904184748 61 225 4.0 8.0 0.03 0.03 0.33 90 1012.3
20260904183749 62 293 5.0 10.0 0.03 0.03 0.33 89 1012.3
20260904182747 62 270 5.0 10.0 0.03 0.03 0.33 89 1012.3
20260904181746 63 203 4.0 8.0 0.03 0.03 0.33 89 1011.8
20260904180744 63 270 5.0 10.0 0.00 0.00 0.30 89 1011.8
20260904175743 63 315 4.0 7.0 0.00 0.00 0.30 89 1011.5